Find Starlink 32105

NORAD ID: 59689 Int'l Des: 2024-086 Owner: SPXS Country: US Constellation: starlink operational
LEOCIRCULAR

当前视图

正在加载3D地球...

About Starlink 32105

Starlink 32105 (NORAD 59689) is a starlink constellation satellite (v2 mini) launched May 8, 2024 by SPXS of US. It operates in LEO, CIRCULAR orbit with a mass of 730.00 kg.

即将过境

Passes for default location (London). Set your location on the main map for personalized predictions.

高度历史

Loading altitude history...

两行轨道根数

1 59689U 24086H 26263.66142017 -.00002415 00000-0 -78298-4 0 9995
2 59689 43.0042 38.5341 0002210 276.1585 83.9015 15.27555856133939
Epoch: Sep 20, 2026 • Age: 23 hours

当前状态

高度 483.4 km
远地点 / 近地点 N/A
速度 7.63 km/s
星下点 19.47°N, 26.94°W
发射日期 May 8, 2024
运行时间 2.3 years
类型 internet

技术详情

分类 Payload
质量 730.00 kg
干质量 700.00 kg
长度 0.30 m
跨度 29.00 m
形状 ? Box + pan
制造商 SPXS
平台类型 Starlink V2M
阶段状态 In Orbit
所有者/国家 SPXS/US

Most Searched